| Date | Time | Temp. (oF) | Dew Point (oF) | Rel. Hum. (%) | Press. (in.) | Wind Dir. | Wind Speed (mph) | Hourly Rainfall (in.) |
|
|---|---|---|---|---|---|---|---|---|---|
| 1 | 01/15 | 00:00 | 23 | 15 | 73 | 30.12 | SW | 4 | 0.00 |
| 2 | 01/14 | 23:00 | 23 | 14 | 69 | 30.13 | SSW | 2 | 0.00 |
| 3 | 01/14 | 22:00 | 23 | 14 | 69 | 30.12 | SSW | 2 | 0.00 |
| 4 | 01/14 | 21:00 | 23 | 13 | 66 | 30.13 | SSW | 1 | 0.00 |
| 5 | 01/14 | 20:00 | 23 | 12 | 64 | 30.13 | SSE | 1 | 0.00 |
| 6 | 01/14 | 19:00 | 23 | 11 | 62 | 30.12 | WNW | 1 | 0.00 |
| 7 | 01/14 | 18:00 | 24 | 11 | 59 | 30.11 | W | 5 | 0.00 |
| 8 | 01/14 | 17:00 | 24 | 10 | 56 | 30.11 | NW | 4 | 0.00 |
| 9 | 01/14 | 16:00 | 24 | 10 | 55 | 30.10 | WNW | 5 | 0.00 |
| 10 | 01/14 | 15:00 | 24 | 9 | 54 | 30.09 | WNW | 4 | 0.00 |
| 11 | 01/14 | 14:00 | 25 | 8 | 50 | 30.10 | WNW | 7 | 0.00 |
| 12 | 01/14 | 13:00 | 25 | 8 | 49 | 30.12 | W | 6 | 0.00 |
| 13 | 01/14 | 12:00 | 24 | 9 | 53 | 30.16 | WNW | 11 | 0.00 |
| 14 | 01/14 | 11:00 | 24 | 8 | 51 | 30.20 | WNW | 12 | 0.00 |
| 15 | 01/14 | 10:00 | 23 | 10 | 57 | 30.19 | WNW | 9 | 0.00 |
| 16 | 01/14 | 09:00 | 20 | 11 | 68 | 30.19 | W | 6 | 0.00 |
| 17 | 01/14 | 08:00 | 17 | 9 | 72 | 30.17 | WNW | 3 | 0.00 |
| 18 | 01/14 | 07:00 | 16 | 8 | 72 | 30.18 | WNW | 4 | 0.00 |
| 19 | 01/14 | 06:00 | 16 | 7 | 70 | 30.17 | WSW | 3 | 0.00 |
| 20 | 01/14 | 05:00 | 16 | 6 | 66 | 30.16 | W | 2 | 0.00 |
| 21 | 01/14 | 04:00 | 17 | 6 | 62 | 30.15 | SSW | 1 | 0.00 |
| 22 | 01/14 | 03:00 | 19 | 7 | 60 | 30.16 | WNW | 2 | 0.00 |
| 23 | 01/14 | 02:00 | 19 | 6 | 57 | 30.16 | NW | 5 | 0.00 |
| 24 | 01/14 | 01:00 | 21 | 7 | 55 | 30.15 | NW | 7 | 0.00 |